Time,TemperatureF,DewpointF,PressureIn,WindDirection,WindDirectionDegrees,WindSpeedMPH,WindSpeedGustMPH,Humidity,HourlyPrecipIn,Conditions,Clouds,dailyrainin,SoftwareType,DateUTC
2013-02-18 00:22:00,17.0,-99.9,30.11,North,-999,-999.0,-999.0,-999,-99.99,,,-99.99,,2013-02-18 05:22:00,
2013-02-18 00:32:00,17.0,-99.9,30.11,North,-999,-999.0,-999.0,-999,-99.99,,,-99.99,,2013-02-18 05:32:00,
2013-02-18 00:42:00,17.0,-99.9,30.11,North,-999,-999.0,-999.0,-999,-99.99,,,-99.99,,2013-02-18 05:42:00,
2013-02-18 00:52:00,16.0,-99.9,30.13,North,-999,-999.0,-999.0,-999,-99.99,,,-99.99,,2013-02-18 05:52:00,
2013-02-18 01:32:00,16.0,-99.9,30.13,North,-999,-999.0,-999.0,-999,-99.99,,,-99.99,,2013-02-18 06:32:00,
2013-02-18 01:42:00,16.0,-99.9,30.13,North,-999,-999.0,-999.0,-999,-99.99,,,-99.99,,2013-02-18 06:42:00,
2013-02-18 01:52:00,15.0,-99.9,30.13,North,-999,-999.0,-999.0,-999,-99.99,,,-99.99,,2013-02-18 06:52:00,
2013-02-18 02:22:00,15.0,-99.9,30.13,North,-999,-999.0,-999.0,-999,-99.99,,,-99.99,,2013-02-18 07:22:00,
2013-02-18 02:32:00,15.0,-99.9,30.13,North,-999,-999.0,-999.0,-999,-99.99,,,-99.99,,2013-02-18 07:32:00,
2013-02-18 02:42:00,15.0,-99.9,30.13,North,-999,-999.0,-999.0,-999,-99.99,,,-99.99,,2013-02-18 07:42:00,
2013-02-18 02:52:00,15.0,-99.9,30.16,North,-999,-999.0,-999.0,-999,-99.99,,,-99.99,,2013-02-18 07:52:00,
2013-02-18 03:22:00,15.0,-99.9,30.16,North,-999,-999.0,-999.0,-999,-99.99,,,-99.99,,2013-02-18 08:22:00,
2013-02-18 03:33:00,15.0,-99.9,30.16,North,-999,-999.0,-999.0,-999,-99.99,,,-99.99,,2013-02-18 08:33:00,
2013-02-18 03:42:00,15.0,-99.9,30.16,North,-999,-999.0,-999.0,-999,-99.99,,,-99.99,,2013-02-18 08:42:00,
2013-02-18 03:52:00,15.0,-99.9,30.17,North,-999,-999.0,-999.0,-999,-99.99,,,-99.99,,2013-02-18 08:52:00,
2013-02-18 04:22:00,15.0,-99.9,30.17,North,-999,-999.0,-999.0,-999,-99.99,,,-99.99,,2013-02-18 09:22:00,
2013-02-18 04:32:00,15.0,-99.9,30.17,North,-999,-999.0,-999.0,-999,-99.99,,,-99.99,,2013-02-18 09:32:00,
2013-02-18 04:42:00,15.0,-99.9,30.17,North,-999,-999.0,-999.0,-999,-99.99,,,-99.99,,2013-02-18 09:42:00,
2013-02-18 04:52:00,15.0,-99.9,30.21,North,-999,-999.0,-999.0,-999,-99.99,,,-99.99,,2013-02-18 09:52:00,
2013-02-18 05:22:00,15.0,-99.9,30.21,North,-999,-999.0,-999.0,-999,-99.99,,,-99.99,,2013-02-18 10:22:00,
2013-02-18 05:32:00,15.0,-99.9,30.21,North,-999,-999.0,-999.0,-999,-99.99,,,-99.99,,2013-02-18 10:32:00,
2013-02-18 05:43:00,15.0,-99.9,30.21,North,-999,-999.0,-999.0,-999,-99.99,,,-99.99,,2013-02-18 10:43:00,
2013-02-18 05:52:00,15.0,-99.9,30.24,North,-999,-999.0,-999.0,-999,-99.99,,,-99.99,,2013-02-18 10:52:00,
2013-02-18 06:33:00,15.0,-99.9,30.24,North,-999,-999.0,-999.0,-999,-99.99,,,-99.99,,2013-02-18 11:33:00,
2013-02-18 06:43:00,15.0,-99.9,30.24,North,-999,-999.0,-999.0,-999,-99.99,,,-99.99,,2013-02-18 11:43:00,
2013-02-18 06:52:00,15.0,-99.9,30.26,North,-999,-999.0,-999.0,-999,-99.99,,,-99.99,,2013-02-18 11:52:00,
2013-02-18 07:22:00,15.0,-99.9,30.26,North,-999,-999.0,-999.0,-999,-99.99,,,-99.99,,2013-02-18 12:22:00,
2013-02-18 07:32:00,15.0,-99.9,30.26,North,-999,-999.0,-999.0,-999,-99.99,,,-99.99,,2013-02-18 12:32:00,
2013-02-18 07:42:00,15.0,-99.9,30.26,North,-999,-999.0,-999.0,-999,-99.99,,,-99.99,,2013-02-18 12:42:00,
2013-02-18 07:52:00,16.0,-99.9,30.30,North,-999,-999.0,-999.0,-999,-99.99,,,-99.99,,2013-02-18 12:52:00,
2013-02-18 08:23:00,16.0,-99.9,30.30,North,-999,-999.0,-999.0,-999,-99.99,,,-99.99,,2013-02-18 13:23:00,
2013-02-18 08:33:00,16.0,-99.9,30.30,North,-999,-999.0,-999.0,-999,-99.99,,,-99.99,,2013-02-18 13:33:00,
2013-02-18 08:43:00,16.0,-99.9,30.30,North,-999,-999.0,-999.0,-999,-99.99,,,-99.99,,2013-02-18 13:43:00,
2013-02-18 08:52:00,18.0,-99.9,30.32,North,-999,-999.0,-999.0,-999,-99.99,,,-99.99,,2013-02-18 13:52:00,
2013-02-18 09:34:00,18.0,-99.9,30.32,North,-999,-999.0,-999.0,-999,-99.99,,,-99.99,,2013-02-18 14:34:00,
2013-02-18 09:42:00,18.0,-99.9,30.32,North,-999,-999.0,-999.0,-999,-99.99,,,-99.99,,2013-02-18 14:42:00,
2013-02-18 09:52:00,20.0,-99.9,30.33,North,-999,-999.0,-999.0,-999,-99.99,,,-99.99,,2013-02-18 14:52:00,
2013-02-18 10:22:00,20.0,-99.9,30.33,North,-999,-999.0,-999.0,-999,-99.99,,,-99.99,,2013-02-18 15:22:00,
2013-02-18 10:32:00,20.0,-99.9,30.33,North,-999,-999.0,-999.0,-999,-99.99,,,-99.99,,2013-02-18 15:32:00,
2013-02-18 10:42:00,20.0,-99.9,30.33,North,-999,-999.0,-999.0,-999,-99.99,,,-99.99,,2013-02-18 15:42:00,
2013-02-18 10:52:00,23.0,-99.9,30.34,North,-999,-999.0,-999.0,-999,-99.99,,,-99.99,,2013-02-18 15:52:00,
2013-02-18 11:23:00,23.0,-99.9,30.34,North,-999,-999.0,-999.0,-999,-99.99,,,-99.99,,2013-02-18 16:23:00,
2013-02-18 11:33:00,23.0,-99.9,30.34,North,-999,-999.0,-999.0,-999,-99.99,,,-99.99,,2013-02-18 16:33:00,
2013-02-18 11:43:00,23.0,-99.9,30.34,North,-999,-999.0,-999.0,-999,-99.99,,,-99.99,,2013-02-18 16:43:00,
2013-02-18 11:52:00,26.0,-99.9,30.33,North,-999,-999.0,-999.0,-999,-99.99,,,-99.99,,2013-02-18 16:52:00,
2013-02-18 12:23:00,26.0,-99.9,30.33,North,-999,-999.0,-999.0,-999,-99.99,,,-99.99,,2013-02-18 17:23:00,
2013-02-18 12:33:00,26.0,-99.9,30.33,North,-999,-999.0,-999.0,-999,-99.99,,,-99.99,,2013-02-18 17:33:00,
2013-02-18 12:43:00,26.0,-99.9,30.33,North,-999,-999.0,-999.0,-999,-99.99,,,-99.99,,2013-02-18 17:43:00,
2013-02-18 12:52:00,28.0,-99.9,30.29,North,-999,-999.0,-999.0,-999,-99.99,,,-99.99,,2013-02-18 17:52:00,
2013-02-18 13:23:00,28.0,-99.9,30.29,North,-999,-999.0,-999.0,-999,-99.99,,,-99.99,,2013-02-18 18:23:00,
2013-02-18 13:33:00,28.0,-99.9,30.29,North,-999,-999.0,-999.0,-999,-99.99,,,-99.99,,2013-02-18 18:33:00,
2013-02-18 13:43:00,28.0,-99.9,30.29,North,-999,-999.0,-999.0,-999,-99.99,,,-99.99,,2013-02-18 18:43:00,
2013-02-18 13:52:00,31.0,-99.9,30.26,North,-999,-999.0,-999.0,-999,-99.99,,,-99.99,,2013-02-18 18:52:00,
2013-02-18 14:23:00,31.0,-99.9,30.26,North,-999,-999.0,-999.0,-999,-99.99,,,-99.99,,2013-02-18 19:23:00,
2013-02-18 14:34:00,31.0,-99.9,30.26,North,-999,-999.0,-999.0,-999,-99.99,,,-99.99,,2013-02-18 19:34:00,
2013-02-18 14:43:00,31.0,-99.9,30.26,North,-999,-999.0,-999.0,-999,-99.99,,,-99.99,,2013-02-18 19:43:00,
2013-02-18 14:52:00,33.0,-99.9,30.25,North,-999,-999.0,-999.0,-999,-99.99,,,-99.99,,2013-02-18 19:52:00,
2013-02-18 15:24:00,33.0,-99.9,30.25,North,-999,-999.0,-999.0,-999,-99.99,,,-99.99,,2013-02-18 20:24:00,
2013-02-18 15:34:00,33.0,-99.9,30.25,North,-999,-999.0,-999.0,-999,-99.99,,,-99.99,,2013-02-18 20:34:00,
2013-02-18 15:43:00,33.0,-99.9,30.25,North,-999,-999.0,-999.0,-999,-99.99,,,-99.99,,2013-02-18 20:43:00,
2013-02-18 15:52:00,33.0,-99.9,30.24,North,-999,-999.0,-999.0,-999,-99.99,,,-99.99,,2013-02-18 20:52:00,
2013-02-18 16:23:00,33.0,-99.9,30.24,North,-999,-999.0,-999.0,-999,-99.99,,,-99.99,,2013-02-18 21:23:00,
2013-02-18 16:33:00,33.0,-99.9,30.24,North,-999,-999.0,-999.0,-999,-99.99,,,-99.99,,2013-02-18 21:33:00,
2013-02-18 16:43:00,33.0,-99.9,30.24,North,-999,-999.0,-999.0,-999,-99.99,,,-99.99,,2013-02-18 21:43:00,
2013-02-18 16:52:00,32.0,-99.9,30.24,North,-999,-999.0,-999.0,-999,-99.99,,,-99.99,,2013-02-18 21:52:00,
2013-02-18 17:23:00,32.0,-99.9,30.24,North,-999,-999.0,-999.0,-999,-99.99,,,-99.99,,2013-02-18 22:23:00,
2013-02-18 17:33:00,32.0,-99.9,30.24,North,-999,-999.0,-999.0,-999,-99.99,,,-99.99,,2013-02-18 22:33:00,
2013-02-18 17:44:00,32.0,-99.9,30.24,North,-999,-999.0,-999.0,-999,-99.99,,,-99.99,,2013-02-18 22:44:00,
2013-02-18 17:52:00,29.0,-99.9,30.24,North,-999,-999.0,-999.0,-999,-99.99,,,-99.99,,2013-02-18 22:52:00,
2013-02-18 18:23:00,29.0,-99.9,30.24,North,-999,-999.0,-999.0,-999,-99.99,,,-99.99,,2013-02-18 23:23:00,
2013-02-18 18:34:00,29.0,-99.9,30.24,North,-999,-999.0,-999.0,-999,-99.99,,,-99.99,,2013-02-18 23:34:00,
2013-02-18 18:43:00,29.0,-99.9,30.24,North,-999,-999.0,-999.0,-999,-99.99,,,-99.99,,2013-02-18 23:43:00,
2013-02-18 18:52:00,27.0,-99.9,30.25,North,-999,-999.0,-999.0,-999,-99.99,,,-99.99,,2013-02-18 23:52:00,
2013-02-18 19:36:00,27.0,-99.9,30.25,North,-999,-999.0,-999.0,-999,-99.99,,,-99.99,,2013-02-19 00:36:00,
2013-02-18 19:44:00,27.0,-99.9,30.25,North,-999,-999.0,-999.0,-999,-99.99,,,-99.99,,2013-02-19 00:44:00,
2013-02-18 19:52:00,27.0,-99.9,30.26,North,-999,-999.0,-999.0,-999,-99.99,,,-99.99,,2013-02-19 00:52:00,
2013-02-18 20:25:00,27.0,-99.9,30.26,North,-999,-999.0,-999.0,-999,-99.99,,,-99.99,,2013-02-19 01:25:00,
2013-02-18 20:35:00,27.0,-99.9,30.26,North,-999,-999.0,-999.0,-999,-99.99,,,-99.99,,2013-02-19 01:35:00,
2013-02-18 20:45:00,27.0,-99.9,30.26,North,-999,-999.0,-999.0,-999,-99.99,,,-99.99,,2013-02-19 01:45:00,
2013-02-18 20:52:00,27.0,-99.9,30.24,North,-999,-999.0,-999.0,-999,-99.99,,,-99.99,,2013-02-19 01:52:00,
2013-02-18 21:23:00,27.0,-99.9,30.24,North,-999,-999.0,-999.0,-999,-99.99,,,-99.99,,2013-02-19 02:23:00,
2013-02-18 21:35:00,27.0,-99.9,30.24,North,-999,-999.0,-999.0,-999,-99.99,,,-99.99,,2013-02-19 02:35:00,
2013-02-18 21:44:00,27.0,-99.9,30.24,North,-999,-999.0,-999.0,-999,-99.99,,,-99.99,,2013-02-19 02:44:00,
2013-02-18 21:52:00,28.0,-99.9,30.24,North,-999,-999.0,-999.0,-999,-99.99,,,-99.99,,2013-02-19 02:52:00,
2013-02-18 22:25:00,28.0,-99.9,30.24,North,-999,-999.0,-999.0,-999,-99.99,,,-99.99,,2013-02-19 03:25:00,
2013-02-18 22:35:00,28.0,-99.9,30.24,North,-999,-999.0,-999.0,-999,-99.99,,,-99.99,,2013-02-19 03:35:00,
2013-02-18 22:46:00,28.0,-99.9,30.24,North,-999,-999.0,-999.0,-999,-99.99,,,-99.99,,2013-02-19 03:46:00,
2013-02-18 22:52:00,28.0,-99.9,30.24,North,-999,-999.0,-999.0,-999,-99.99,,,-99.99,,2013-02-19 03:52:00,
2013-02-18 23:24:00,28.0,-99.9,30.24,North,-999,-999.0,-999.0,-999,-99.99,,,-99.99,,2013-02-19 04:24:00,
2013-02-18 23:34:00,28.0,-99.9,30.24,North,-999,-999.0,-999.0,-999,-99.99,,,-99.99,,2013-02-19 04:34:00,
2013-02-18 23:45:00,28.0,-99.9,30.24,North,-999,-999.0,-999.0,-999,-99.99,,,-99.99,,2013-02-19 04:45:00,
2013-02-18 23:52:00,25.0,-99.9,30.22,North,-999,-999.0,-999.0,-999,-99.99,,,-99.99,,2013-02-19 04:52:00,